Location: ???????
(55.4362°N, 38.1183°E)
Time: 01:38:12
(UTC+00:00)

Cosmos 1184 Rocket - Pass Details

Date: 17 June 2021
Orbit: 399 x 414 km, 81.2° (Epoch: 26 July)

Event Time Altitude Azimuth Distance (km) Brightness Sun altitude
Exits shadow 20:16:28 13° 145° (SE) 1,304 4.6 -9.7°
Maximum altitude 20:18:40 26° 94° (E) 873 4.2 -9.8°
Drops below altitude 10° 20:21:27 10° 36° (NE) 1,506 6.1 -9.9°
Sets 20:23:41 0° 23° (NNE) 2,373 7.5 -10.0°
